This is the latest recevied weather packets stored in our database for station/object WB6ANP. If no packets are shown the sender has not sent any weather packets the latest 10 day(s).
| Time | Temp. | Humidity | Pressure | Rain* | Wind** | Luminosity | Snow |
|---|---|---|---|---|---|---|---|
| 1777840832 | 26.67° C | 32% | 1017.5 hPa | 0 mm | - | 652 W/m² | - |
| 1777840529 | 27.22° C | 29% | 1017.8 hPa | 0 mm | - | 728 W/m² | - |
| 1777840226 | 27.22° C | 29% | 1017.9 hPa | 0 mm | - | 716 W/m² | - |
| 1777839924 | 27.22° C | 31% | 1017.6 hPa | 0 mm | - | 786 W/m² | - |
| 1777839622 | 26.67° C | 29% | 1017.8 hPa | 0 mm | - | 749 W/m² | - |
| 1777839320 | 26.67° C | 32% | 1018 hPa | 0 mm | - | 807 W/m² | - |
| 1777839016 | 26.67° C | 30% | 1018.1 hPa | 0 mm | - | 779 W/m² | - |
| 1777838712 | 26.67° C | 31% | 1018.2 hPa | 0 mm | - | 828 W/m² | - |
| 1777838409 | 26.67° C | 31% | 1018.2 hPa | 0 mm | - | 857 W/m² | - |
| 1777838107 | 26.11° C | 29% | 1018.4 hPa | 0 mm | - | 852 W/m² | - |
| 1777837803 | 26.67° C | 30% | 1018.3 hPa | 0 mm | - | 867 W/m² | - |
| 1777837501 | 26.67° C | 31% | 1018.2 hPa | 0 mm | - | 855 W/m² | - |
| 1777837195 | 26.67° C | 32% | 1018.5 hPa | 0 mm | - | 726 W/m² | - |
| 1777836891 | 26.11° C | 33% | 1018.7 hPa | 0 mm | - | 892 W/m² | - |
| 1777836587 | 26.67° C | 32% | 1018.6 hPa | 0 mm | - | 903 W/m² | - |
| 1777836283 | 26.67° C | 31% | 1018.6 hPa | 0 mm | - | 912 W/m² | - |
| 1777835979 | 26.67° C | 33% | 1019 hPa | 0 mm | - | 913 W/m² | - |
| 1777835677 | 26.67° C | 31% | 1019.1 hPa | 0 mm | - | 918 W/m² | - |
| 1777835373 | 26.67° C | 31% | 1018.8 hPa | 0 mm | - | 927 W/m² | - |
| 1777835071 | 26.67° C | 33% | 1019 hPa | 0 mm | - | 939 W/m² | - |
| 1777834767 | 26.67° C | 28% | 1019.1 hPa | 0 mm | - | 939 W/m² | - |
| 1777834464 | 26.67° C | 28% | 1019.4 hPa | 0 mm | - | 955 W/m² | - |
| 1777834163 | 26.11° C | 35% | 1019.4 hPa | 0 mm | - | 985 W/m² | - |
| 1777833860 | 26.67° C | 33% | 1019.5 hPa | 0 mm | - | 995 W/m² | - |
| 1777833556 | 26.11° C | 33% | 1019.3 hPa | 0 mm | - | 993 W/m² | - |
* Rain latest hour (hover to see other rain measurements)
** Current wind speed in m/s (hover to see current wind gust speed)